• In Deutschland
  • Länderverzeichnis
  • Für 7 Tage
  • Wassertemperatur
  • Satellitenkarten
  • Wetterkarte
  • Widgets
  • user-avatar
    Anmelden

    Stündliche Wetter Kerewan

    Heute, 21 Oktober, Sonntag

    Zeit Temperatur Niederschläge Wind Luftdruck Luftfeuchtigkeit
    00:00 +30°C° 0 mm 1 m/S 756 mmHg 65%
    01:00 +29°C° 0 mm 1 m/S 756 mmHg 66%
    02:00 +29°C° 0 mm 1 m/S 756 mmHg 67%
    03:00 +29°C° 0 mm 1 m/S 756 mmHg 66%
    04:00 +29°C° 0 mm 1 m/S 756 mmHg 66%
    05:00 +29°C° 0 mm 1 m/S 756 mmHg 66%
    06:00 +29°C° 0 mm 1 m/S 756 mmHg 64%
    07:00 +30°C° 0 mm 2 m/S 756 mmHg 62%
    08:00 +31°C° 0 mm 2 m/S 757 mmHg 60%
    09:00 +34°C° 0 mm 2 m/S 757 mmHg 53%
    10:00 +36°C° 0 mm 2 m/S 757 mmHg 47%
    11:00 +38°C° 0 mm 3 m/S 756 mmHg 41%
    12:00 +38°C° 0 mm 3 m/S 756 mmHg 38%
    13:00 +39°C° 0 mm 3 m/S 755 mmHg 35%
    14:00 +40°C° 0 mm 3 m/S 754 mmHg 32%
    15:00 +39°C° 0 mm 2 m/S 754 mmHg 34%
    16:00 +38°C° 0 mm 2 m/S 754 mmHg 37%
    17:00 +37°C° 0 mm 2 m/S 754 mmHg 40%
    18:00 +36°C° 0 mm 2 m/S 755 mmHg 44%
    19:00 +34°C° 0 mm 3 m/S 755 mmHg 49%
    20:00 +33°C° 0 mm 3 m/S 756 mmHg 54%
    21:00 +31°C° 0 mm 3 m/S 756 mmHg 57%
    22:00 +31°C° 0 mm 3 m/S 756 mmHg 60%
    23:00 +30°C° 0 mm 3 m/S 756 mmHg 62%

    Morgen, 22 Oktober, Montag

    Zeit Temperatur Niederschläge Wind Luftdruck Luftfeuchtigkeit
    00:00 +30°C° 0 mm 3 m/S 756 mmHg 63%
    01:00 +29°C° 0 mm 3 m/S 756 mmHg 63%
    02:00 +29°C° 0 mm 3 m/S 755 mmHg 64%
    03:00 +29°C° 0 mm 3 m/S 755 mmHg 64%
    04:00 +28°C° 0 mm 3 m/S 755 mmHg 65%
    05:00 +28°C° 0 mm 3 m/S 755 mmHg 66%
    06:00 +29°C° 0 mm 3 m/S 755 mmHg 63%
    07:00 +30°C° 0 mm 3 m/S 756 mmHg 61%
    08:00 +31°C° 0 mm 3 m/S 756 mmHg 58%
    09:00 +34°C° 0 mm 3 m/S 756 mmHg 50%
    10:00 +36°C° 0 mm 3 m/S 756 mmHg 42%
    11:00 +38°C° 0 mm 3 m/S 756 mmHg 35%
    12:00 +39°C° 0 mm 3 m/S 755 mmHg 33%
    13:00 +40°C° 0 mm 3 m/S 755 mmHg 31%
    14:00 +40°C° 0 mm 2 m/S 754 mmHg 29%
    15:00 +39°C° 0 mm 3 m/S 754 mmHg 35%
    16:00 +37°C° 0 mm 3 m/S 754 mmHg 40%
    17:00 +36°C° 0 mm 4 m/S 754 mmHg 46%
    18:00 +35°C° 0 mm 4 m/S 755 mmHg 50%
    19:00 +34°C° 0 mm 4 m/S 755 mmHg 55%
    20:00 +32°C° 0 mm 5 m/S 756 mmHg 59%
    21:00 +32°C° 0 mm 4 m/S 756 mmHg 60%
    22:00 +30°C° 0 mm 4 m/S 756 mmHg 61%
    23:00 +30°C° 0 mm 3 m/S 757 mmHg 61%

    übermorgen, 23 Oktober, Dienstag

    Zeit Temperatur Niederschläge Wind Luftdruck Luftfeuchtigkeit
    00:00 +29°C° 0 mm 3 m/S 756 mmHg 62%
    01:00 +29°C° 0 mm 3 m/S 756 mmHg 63%
    02:00 +28°C° 0 mm 3 m/S 756 mmHg 64%
    03:00 +28°C° 0 mm 3 m/S 756 mmHg 64%
    04:00 +28°C° 0 mm 3 m/S 756 mmHg 64%
    05:00 +28°C° 0 mm 2 m/S 756 mmHg 64%
    06:00 +29°C° 0 mm 3 m/S 756 mmHg 60%
    07:00 +30°C° 0 mm 3 m/S 757 mmHg 57%
    08:00 +31°C° 0 mm 3 m/S 758 mmHg 54%
    09:00 +33°C° 0 mm 3 m/S 758 mmHg 49%
    10:00 +35°C° 0 mm 3 m/S 757 mmHg 43%
    11:00 +37°C° 0 mm 2 m/S 757 mmHg 38%
    12:00 +38°C° 0 mm 2 m/S 756 mmHg 36%
    13:00 +39°C° 0 mm 1 m/S 756 mmHg 34%
    14:00 +41°C° 0 mm 1 m/S 755 mmHg 32%
    15:00 +39°C° 0 mm 1 m/S 755 mmHg 36%
    16:00 +38°C° 0 mm 2 m/S 755 mmHg 41%
    17:00 +37°C° 0 mm 3 m/S 755 mmHg 46%
    18:00 +35°C° 0 mm 3 m/S 755 mmHg 51%
    19:00 +34°C° 0 mm 3 m/S 756 mmHg 57%
    20:00 +31°C° 0 mm 3 m/S 757 mmHg 62%
    21:00 +31°C° 0 mm 3 m/S 757 mmHg 64%
    22:00 +30°C° 0 mm 3 m/S 757 mmHg 66%
    23:00 +30°C° 0 mm 2 m/S 757 mmHg 68%

    24 Oktober, Mittwoch

    Zeit Temperatur Niederschläge Wind Luftdruck Luftfeuchtigkeit
    00:00 +29°C° 0 mm 2 m/S 757 mmHg 69%
    01:00 +29°C° 0 mm 2 m/S 756 mmHg 70%
    02:00 +29°C° 0 mm 2 m/S 756 mmHg 70%
    03:00 +28°C° 0 mm 2 m/S 756 mmHg 71%
    04:00 +28°C° 0 mm 2 m/S 756 mmHg 72%
    05:00 +28°C° 0 mm 2 m/S 756 mmHg 73%
    06:00 +29°C° 0 mm 3 m/S 756 mmHg 68%
    07:00 +30°C° 0 mm 3 m/S 756 mmHg 64%
    08:00 +32°C° 0 mm 4 m/S 757 mmHg 60%
    09:00 +35°C° 0 mm 3 m/S 757 mmHg 51%
    10:00 +37°C° 0 mm 3 m/S 756 mmHg 43%
    11:00 +39°C° 0 mm 3 m/S 756 mmHg 35%
    12:00 +40°C° 0 mm 2 m/S 755 mmHg 33%
    13:00 +41°C° 0 mm 2 m/S 755 mmHg 31%
    14:00 +41°C° 0 mm 2 m/S 754 mmHg 29%
    15:00 +40°C° 0 mm 3 m/S 754 mmHg 35%
    16:00 +38°C° 0 mm 3 m/S 754 mmHg 41%
    17:00 +37°C° 0 mm 4 m/S 754 mmHg 47%
    18:00 +36°C° 0 mm 4 m/S 754 mmHg 50%
    19:00 +35°C° 0 mm 4 m/S 755 mmHg 54%
    20:00 +33°C° 0 mm 4 m/S 755 mmHg 57%
    21:00 +33°C° 0 mm 4 m/S 755 mmHg 58%
    22:00 +32°C° 0 mm 4 m/S 755 mmHg 59%
    23:00 +30°C° 0 mm 4 m/S 755 mmHg 61%

    25 Oktober, Donnerstag

    Zeit Temperatur Niederschläge Wind Luftdruck Luftfeuchtigkeit
    00:00 +30°C° 0 mm 4 m/S 755 mmHg 62%
    01:00 +29°C° 0 mm 3 m/S 755 mmHg 63%
    02:00 +29°C° 0 mm 3 m/S 754 mmHg 65%
    03:00 +29°C° 0 mm 3 m/S 754 mmHg 66%
    04:00 +28°C° 0 mm 3 m/S 754 mmHg 67%
    05:00 +28°C° 0 mm 3 m/S 755 mmHg 68%
    06:00 +29°C° 0 mm 4 m/S 755 mmHg 65%
    07:00 +30°C° 0 mm 5 m/S 755 mmHg 62%
    08:00 +32°C° 0 mm 5 m/S 756 mmHg 59%
    09:00 +34°C° 0 mm 5 m/S 755 mmHg 51%
    10:00 +37°C° 0 mm 5 m/S 755 mmHg 43%
    11:00 +40°C° 0 mm 4 m/S 755 mmHg 35%
    12:00 +41°C° 0 mm 4 m/S 754 mmHg 31%
    13:00 +42°C° 0 mm 3 m/S 753 mmHg 28%
    14:00 +43°C° 0 mm 3 m/S 752 mmHg 24%
    15:00 +42°C° 0 mm 3 m/S 752 mmHg 29%
    16:00 +39°C° 0 mm 3 m/S 753 mmHg 35%
    17:00 +38°C° 0 mm 4 m/S 753 mmHg 40%
    18:00 +36°C° 0 mm 4 m/S 753 mmHg 46%
    19:00 +34°C° 0 mm 4 m/S 754 mmHg 53%
    20:00 +33°C° 0 mm 4 m/S 754 mmHg 60%
    21:00 +31°C° 0 mm 3 m/S 754 mmHg 61%
    22:00 +30°C° 0 mm 3 m/S 754 mmHg 62%
    23:00 +30°C° 0 mm 2 m/S 755 mmHg 64%

    26 Oktober, Freitag

    Zeit Temperatur Niederschläge Wind Luftdruck Luftfeuchtigkeit
    00:00 +29°C° 0 mm 2 m/S 754 mmHg 66%
    01:00 +28°C° 0 mm 2 m/S 754 mmHg 68%
    02:00 +28°C° 0 mm 2 m/S 754 mmHg 70%
    03:00 +28°C° 0 mm 1 m/S 754 mmHg 71%
    04:00 +27°C° 0 mm 1 m/S 754 mmHg 72%
    05:00 +27°C° 0 mm 1 m/S 754 mmHg 73%
    06:00 +28°C° 0 mm 2 m/S 755 mmHg 69%
    07:00 +29°C° 0 mm 2 m/S 755 mmHg 65%
    08:00 +30°C° 0 mm 2 m/S 756 mmHg 61%
    09:00 +32°C° 0 mm 2 m/S 755 mmHg 53%
    10:00 +36°C° 0 mm 2 m/S 755 mmHg 44%
    11:00 +38°C° 0 mm 2 m/S 755 mmHg 36%
    12:00 +39°C° 0 mm 2 m/S 754 mmHg 34%
    13:00 +40°C° 0 mm 2 m/S 754 mmHg 32%
    14:00 +41°C° 0 mm 2 m/S 753 mmHg 30%
    15:00 +39°C° 0 mm 3 m/S 753 mmHg 38%
    16:00 +37°C° 0 mm 3 m/S 753 mmHg 46%
    17:00 +35°C° 0 mm 4 m/S 754 mmHg 54%
    18:00 +34°C° 0 mm 4 m/S 754 mmHg 59%
    19:00 +33°C° 0 mm 4 m/S 755 mmHg 64%
    20:00 +30°C° 0 mm 3 m/S 755 mmHg 69%
    21:00 +30°C° 0 mm 3 m/S 756 mmHg 71%
    22:00 +29°C° 0 mm 3 m/S 756 mmHg 72%
    23:00 +29°C° 0 mm 2 m/S 756 mmHg 74%
    Mehr zeigen